Flag for Cambodia Weather past 2 weeks in Phnom Penh, Cambodia

Now
97 °F

Broken clouds.


Feels Like: 110 °F
Forecast: 80 / 98 °F
Wind: 12 mph from Southwest

Location: Phnom-Penh / Pochentong

Current Time: May 24, 2015 at 1:19:17 PM

Latest Report: May 24, 2015 at 1:00 PM


Visibility: N/A

Pressure: 29.74 "Hg

Humidity: 50%

Dew point: 75 °F

Location of Phnom PenhLocation

Historic Weather in Phnom Penh — Graph

°F

Phnom Penh temperature yesterday

Maximum temperature yesterday: 97 °F (at 12:30 PM)
Minimum temperature yesterday: 84 °F (at 12:00 AM)
Average temperature yesterday: 90 °F

Past Weeks' High & Low Weather Summary

 TemperatureHumidityPressure
High102 °F (May 18, 2:30 PM)94% (May 13, 6:00 AM)29.89 "Hg (May 13, 6:00 AM)
Low81 °F (May 10, 6:00 AM)31% (May 14, 4:00 PM)29.62 "Hg (May 9, 3:30 PM)
Average90 °F60%29.75 "Hg
* Reported May 9 12:00 Noon — May 24 12:00 Noon, Phnom Penh, Weather by CustomWeather, © 2015

Note: Actual official high and low records may vary slightly from our data, if they occured in-between our weather recording intervals... More about our weather records

Advertising

Phnom Penh weather history for previous 24 hours

 ConditionsComfort  
Time TempWeatherWind HumidityBarometerVisibility
12:00 PM
Sun, May 24
95 °FScattered clouds.7 mph50%29.77 "HgN/A
11:30 AM95 °FScattered clouds.9 mph50%29.77 "HgN/A
11:00 AM95 °FScattered clouds.7 mph50%29.77 "HgN/A
10:30 AM93 °FScattered clouds.8 mph53%29.80 "HgN/A
10:00 AM91 °FScattered clouds.9 mph59%29.80 "HgN/A
9:30 AM91 °FScattered clouds.7 mph59%29.80 "HgN/A
9:00 AM90 °FPassing clouds.8 mph63%29.80 "HgN/A
8:30 AM90 °FPassing clouds.7 mph63%29.80 "HgN/A
8:00 AM88 °FPassing clouds.6 mph62%29.80 "HgN/A
7:30 AM86 °FPassing clouds.5 mph70%29.77 "HgN/A
7:00 AM84 °FPassing clouds.7 mph74%29.77 "HgN/A
6:30 AM82 °FScattered clouds.7 mph79%29.77 "HgN/A
6:00 AM82 °FScattered clouds.6 mph79%29.74 "HgN/A
1:00 AM84 °FPassing clouds.6 mph70%29.77 "Hg6 mi
12:30 AM84 °FPassing clouds.6 mph70%29.77 "Hg6 mi
12:00 AM84 °FPassing clouds.3 mph70%29.77 "Hg6 mi
11:30 PM
Sat, May 23
84 °FPassing clouds.5 mph70%29.80 "Hg6 mi
11:00 PM86 °FPassing clouds.5 mph66%29.80 "Hg6 mi
10:30 PM86 °FPassing clouds.3 mph66%29.80 "Hg6 mi
10:00 PM86 °FPassing clouds.3 mph66%29.77 "Hg6 mi
9:30 PM84 °FPassing clouds.No wind70%29.77 "Hg6 mi
9:00 PM84 °FPassing clouds.1 mph66%29.77 "Hg6 mi
8:30 PM84 °FPassing clouds.3 mph66%29.77 "Hg6 mi
8:00 PM84 °FPassing clouds.5 mph66%29.74 "Hg6 mi
7:30 PM86 °FPassing clouds.6 mph62%29.71 "Hg6 mi
7:00 PM90 °FPartly cloudy.2 mph55%29.71 "HgN/A
6:30 PM91 °FPassing clouds.3 mph52%29.71 "HgN/A
6:00 PM91 °FScattered clouds.6 mph49%29.71 "HgN/A
5:30 PM93 °FScattered clouds.9 mph47%29.71 "HgN/A
5:00 PM93 °FScattered clouds.12 mph44%29.68 "HgN/A
4:30 PM95 °FScattered clouds.12 mph47%29.68 "HgN/A
4:00 PM95 °FScattered clouds.10 mph47%29.68 "HgN/A
3:30 PM97 °FScattered clouds.13 mph44%29.68 "HgN/A
3:00 PM97 °FScattered clouds.12 mph42%29.68 "HgN/A
2:30 PM97 °FScattered clouds.15 mph42%29.68 "HgN/A
2:00 PM97 °FScattered clouds.14 mph44%29.71 "HgN/A
1:30 PM95 °FScattered clouds.12 mph44%29.74 "HgN/A
1:00 PM97 °FScattered clouds.16 mph39%29.74 "HgN/A
Weather by CustomWeather, © 2015

See weather overviewHow to use our weather pages